Lawrence, MA

1:35 PM EST on February 07, 2016 (GMT -0500)
Lawrence Municipal

Weather History for KLWM - December, 2013

Change the Weather History Date:

Monday, December 16, 2013

  Actual Average Record
Temperature  
Mean Temperature 22 °F -  
Max Temperature 27 °F 39 °F - (-1)
Min Temperature 12 °F 22 °F - (-1)
Degree Days  
Heating Degree Days 42    
Moisture  
Dew Point 8 °F    
Average Humidity 53    
Maximum Humidity 77    
Minimum Humidity 36    
Precipitation  
Precipitation 0.00 in - - ()
Sea Level Pressure  
Sea Level Pressure 29.98 in    
Wind  
Wind Speed 10 mph (WSW)    
Max Wind Speed 18 mph    
Max Gust Speed 28 mph    
Visibility 10 miles    
Events      
Averages and records for this station are not official NWS values.
T = Trace of Precipitation, MM = Missing Value Source: NWS Daily Summary

Daily Weather History Graph

Daily Weather History Graph

Search for Another Location

Airport or City:

Trip Planner

Search our weather history database for the weather conditions in past years. The results will help you decide how hot, cold, wet, or windy it might be!

Date:

Astronomy

Dec. 16, 2013 Rise Set
Actual Time 7:08 AM EST 4:11 PM EST
Civil Twilight 6:36 AM EST 4:44 PM EST
Nautical Twilight 6:00 AM EST 5:19 PM EST
Astronomical Twilight 5:26 AM EST 5:54 PM EST
Moon 4:01 PM EST (12/16) 6:13 AM EST (12/16)
Length of Visible Light 10h 07m
Length of Day
9h 03m
Full, 100% of the Moon is Illuminated
Dec 16
Full
Dec 17
Full
Dec 25
Last Quarter
Jan 1
New
Jan 7
First Quarter

Hourly Weather History & Observations

Time (EST) Temp. Windchill Dew Point Humidity Pressure Visibility Wind Dir Wind Speed Gust Speed Precip Events Conditions
12:54 AM 23.0 °F 15.8 °F 15.1 °F 72% 29.75 in 10.0 mi SW 5.8 mph - N/A   Partly Cloudy
1:54 AM 23.0 °F 14.7 °F 16.0 °F 74% 29.77 in 10.0 mi SSW 6.9 mph - N/A   Clear
2:54 AM 23.0 °F 14.7 °F 16.0 °F 74% 29.79 in 10.0 mi SSW 6.9 mph - N/A   Mostly Cloudy
3:54 AM 24.1 °F 17.0 °F 18.0 °F 77% 29.80 in 10.0 mi SSW 5.8 mph - N/A   Overcast
4:54 AM 26.1 °F 15.6 °F 16.0 °F 66% 29.81 in 10.0 mi WSW 11.5 mph - N/A   Clear
5:54 AM 25.0 °F 14.2 °F 15.1 °F 66% 29.84 in 10.0 mi West 11.5 mph - N/A   Clear
6:54 AM 24.1 °F 11.5 °F 10.0 °F 55% 29.87 in 10.0 mi West 15.0 mph 19.6 mph N/A   Clear
7:54 AM 23.0 °F 11.1 °F 10.0 °F 58% 29.90 in 10.0 mi West 12.7 mph - N/A   Clear
8:54 AM 24.1 °F 11.0 °F 10.0 °F 55% 29.94 in 10.0 mi West 16.1 mph 20.7 mph N/A   Clear
9:54 AM 25.0 °F 14.8 °F 10.0 °F 53% 29.96 in 10.0 mi West 10.4 mph - N/A   Clear
10:54 AM 26.1 °F 14.0 °F 8.1 °F 47% 29.96 in 10.0 mi West 15.0 mph 25.3 mph N/A   Clear
11:54 AM 27.0 °F 13.9 °F 3.9 °F 37% 29.95 in 10.0 mi West 18.4 mph 26.5 mph N/A   Clear
12:54 PM 27.0 °F 14.7 °F 3.0 °F 36% 29.96 in 10.0 mi West 16.1 mph - N/A   Clear
1:54 PM 27.0 °F 13.9 °F 3.9 °F 37% 29.96 in 10.0 mi West 18.4 mph 24.2 mph N/A   Partly Cloudy
2:54 PM 26.1 °F 13.1 °F 3.0 °F 37% 29.99 in 10.0 mi West 17.3 mph 27.6 mph N/A   Mostly Cloudy
3:54 PM 25.0 °F 11.7 °F 5.0 °F 43% 30.03 in 10.0 mi West 17.3 mph 23.0 mph N/A   Mostly Cloudy
4:54 PM 23.0 °F 11.1 °F 3.9 °F 44% 30.06 in 10.0 mi West 12.7 mph - N/A   Clear
5:54 PM 23.0 °F 10.1 °F 3.0 °F 42% 30.09 in 10.0 mi West 15.0 mph - N/A   Clear
6:54 PM 21.9 °F 10.4 °F 3.9 °F 46% 30.12 in 10.0 mi West 11.5 mph - N/A   Clear
7:54 PM 21.0 °F 10.6 °F 3.9 °F 48% 30.15 in 10.0 mi WSW 9.2 mph - N/A   Clear
8:54 PM 19.9 °F 7.3 °F 3.9 °F 50% 30.18 in 10.0 mi WSW 12.7 mph - N/A   Clear
9:54 PM 19.0 °F 6.8 °F 3.9 °F 52% 30.19 in 10.0 mi WSW 11.5 mph - N/A   Clear
10:54 PM 18.0 °F 11.1 °F 3.0 °F 52% 30.21 in 10.0 mi WNW 4.6 mph - N/A   Clear
11:54 PM 12.9 °F 5.2 °F 1.9 °F 62% 30.22 in 10.0 mi WNW 4.6 mph - N/A   Clear